Tracking 19199 objects as of 25-Jun-2018
HD Live streaming from Space Station
objects crossing your sky now

FENGYUN 1C DEB

Track FENGYUN 1C DEB now!
10-day predictions


NORAD ID: 31443
Int'l Code: 1999-025BUF
Perigee: 626.6 km
Apogee: 991.2 km
Inclination: 99.2 °
Period: 100.9 minutes
Semi major axis: 7179 km
RCS: 0.0109 m2 (small)
Launch date: May 10, 1999
Source: People's Republic of China (PRC)
Launch site: Taiyaun Space Center, China (TSC)

Note: This is SATELLITE DEBRIS
aabbcc
Your satellite tracking list
Your tracking list is empty




NASA's NSSDC Master Catalog

Two Line Element Set (TLE):
1 31443U 99025BUF 18174.45305828 +.00000449 +00000-0 +14723-3 0  9993
2 31443 099.2358 056.1562 0253879 081.5118 281.4745 14.27005518278715
Source of the keplerian elements: AFSPC